Location: Newark
(49.8969°N, 3.3422°E)
Time: 18:10:23
(UTC+00:00)

Tiros 1 - Pass Details

Date: 15 May 2021
Orbit: 630 x 664 km, 48.4° (Epoch: 11 June)

Event Time Altitude Azimuth Distance (km) Brightness Sun altitude
Exits shadow 01:53:20 16° 256° (WSW) 1,700 8.9 -15.4°
Maximum altitude 01:57:08 73° 174° (S) 689 7.1 -15.1°
Drops below altitude 10° 02:01:52 10° 90° (E) 2,058 10.2 -14.7°
Sets 02:04:12 0° 89° (E) 2,964 11.1 -14.5°
